• In Hungary
  • List of Countries
  • For 7 days
  • Water Temperature
  • Satellite Maps
  • Weather Map
  • News
  • Weather Widgets
  • user-avatar
    Login

    Hourly Weather Veseli nad Moravou

    Today, 20 October, Friday

    Time Temperature Precipitation Wind Pressure Humidity
    00:00 +10°C° 0 mm 1 mps 747 mmHg 89%
    01:00 +10°C° 0 mm 1 mps 747 mmHg 90%
    02:00 +10°C° 0 mm 1 mps 747 mmHg 90%
    03:00 +10°C° 0 mm 1 mps 747 mmHg 90%
    04:00 +10°C° 0 mm 1 mps 747 mmHg 90%
    05:00 +9°C° 0 mm 0 mps 747 mmHg 90%
    06:00 +9°C° 0 mm 0 mps 747 mmHg 90%
    07:00 +10°C° 0 mm 1 mps 747 mmHg 84%
    08:00 +12°C° 0 mm 1 mps 747 mmHg 77%
    09:00 +13°C° 0 mm 1 mps 747 mmHg 69%
    10:00 +15°C° 0 mm 1 mps 747 mmHg 62%
    11:00 +16°C° 0 mm 1 mps 747 mmHg 58%
    12:00 +19°C° 0 mm 1 mps 747 mmHg 55%
    13:00 +20°C° 0 mm 1 mps 747 mmHg 51%
    14:00 +19°C° 0 mm 1 mps 747 mmHg 54%
    15:00 +18°C° 0 mm 1 mps 747 mmHg 58%
    16:00 +18°C° 0 mm 1 mps 747 mmHg 61%
    17:00 +15°C° 0 mm 1 mps 747 mmHg 66%
    18:00 +14°C° 0 mm 1 mps 747 mmHg 70%
    19:00 +12°C° 0 mm 0 mps 747 mmHg 75%
    20:00 +11°C° 0 mm 0 mps 747 mmHg 76%
    21:00 +11°C° 0 mm 0 mps 747 mmHg 78%
    22:00 +11°C° 0 mm 0 mps 748 mmHg 80%
    23:00 +10°C° 0 mm 0 mps 748 mmHg 81%

    Tomorrow, 21 October, Saturday

    Time Temperature Precipitation Wind Pressure Humidity
    00:00 +10°C° 0 mm 0 mps 748 mmHg 81%
    01:00 +10°C° 0 mm 0 mps 748 mmHg 82%
    02:00 +10°C° 0 mm 0 mps 748 mmHg 83%
    03:00 +10°C° 0 mm 0 mps 747 mmHg 84%
    04:00 +9°C° 0 mm 0 mps 747 mmHg 84%
    05:00 +10°C° 0 mm 0 mps 747 mmHg 83%
    06:00 +10°C° 0 mm 0 mps 748 mmHg 82%
    07:00 +10°C° 0 mm 0 mps 748 mmHg 81%
    08:00 +11°C° 0.1 mm 0 mps 748 mmHg 78%
    09:00 +13°C° 0.1 mm 1 mps 748 mmHg 75%
    10:00 +14°C° 0.1 mm 1 mps 747 mmHg 72%
    11:00 +16°C° 0 mm 1 mps 747 mmHg 69%
    12:00 +18°C° 0 mm 1 mps 747 mmHg 66%
    13:00 +19°C° 0 mm 1 mps 747 mmHg 63%
    14:00 +19°C° 0 mm 1 mps 747 mmHg 66%
    15:00 +18°C° 0 mm 1 mps 746 mmHg 69%
    16:00 +18°C° 0 mm 1 mps 746 mmHg 72%
    17:00 +16°C° 0 mm 1 mps 746 mmHg 75%
    18:00 +15°C° 0 mm 1 mps 746 mmHg 79%
    19:00 +14°C° 0 mm 1 mps 746 mmHg 82%
    20:00 +13°C° 0 mm 1 mps 746 mmHg 84%
    21:00 +13°C° 0 mm 1 mps 747 mmHg 85%
    22:00 +12°C° 0 mm 0 mps 747 mmHg 87%
    23:00 +11°C° 0 mm 0 mps 746 mmHg 87%

    Day after tomorrow, 22 October, Sunday

    Time Temperature Precipitation Wind Pressure Humidity
    00:00 +11°C° 0 mm 0 mps 746 mmHg 88%
    01:00 +11°C° 0 mm 0 mps 746 mmHg 89%
    02:00 +11°C° 0 mm 0 mps 746 mmHg 90%
    03:00 +10°C° 0 mm 0 mps 746 mmHg 90%
    04:00 +10°C° 0 mm 0 mps 746 mmHg 91%
    05:00 +10°C° 0.1 mm 0 mps 746 mmHg 91%
    06:00 +12°C° 0.1 mm 1 mps 746 mmHg 91%
    07:00 +12°C° 0.1 mm 1 mps 746 mmHg 91%
    08:00 +12°C° 0.5 mm 2 mps 746 mmHg 89%
    09:00 +11°C° 0.5 mm 3 mps 746 mmHg 87%
    10:00 +12°C° 0.5 mm 3 mps 746 mmHg 86%
    11:00 +11°C° 0.5 mm 3 mps 746 mmHg 86%
    12:00 +11°C° 0.5 mm 3 mps 746 mmHg 86%
    13:00 +11°C° 0.5 mm 3 mps 746 mmHg 87%
    14:00 +11°C° 0.3 mm 3 mps 746 mmHg 87%
    15:00 +12°C° 0.3 mm 2 mps 745 mmHg 87%
    16:00 +12°C° 0.3 mm 2 mps 745 mmHg 88%
    17:00 +10°C° 0.3 mm 2 mps 745 mmHg 89%
    18:00 +10°C° 0.3 mm 2 mps 745 mmHg 89%
    19:00 +10°C° 0.3 mm 2 mps 746 mmHg 90%
    20:00 +10°C° 0.7 mm 2 mps 745 mmHg 90%
    21:00 +10°C° 0.7 mm 3 mps 745 mmHg 89%
    22:00 +9°C° 0.7 mm 3 mps 745 mmHg 89%
    23:00 +9°C° 1.3 mm 3 mps 745 mmHg 89%

    23 October, Monday

    Time Temperature Precipitation Wind Pressure Humidity
    00:00 +9°C° 1.3 mm 3 mps 745 mmHg 88%
    01:00 +8°C° 1.3 mm 4 mps 745 mmHg 88%
    02:00 +8°C° 0.5 mm 4 mps 745 mmHg 87%
    03:00 +8°C° 0.5 mm 4 mps 744 mmHg 86%
    04:00 +8°C° 0.5 mm 4 mps 744 mmHg 86%
    05:00 +7°C° 0.2 mm 4 mps 744 mmHg 85%
    06:00 +7°C° 0.2 mm 4 mps 744 mmHg 85%
    07:00 +7°C° 0.2 mm 4 mps 744 mmHg 85%
    08:00 +8°C° 0.1 mm 5 mps 744 mmHg 82%
    09:00 +8°C° 0.1 mm 5 mps 744 mmHg 78%
    10:00 +9°C° 0.1 mm 6 mps 744 mmHg 75%
    11:00 +10°C° 0 mm 6 mps 744 mmHg 72%
    12:00 +10°C° 0 mm 6 mps 744 mmHg 69%
    13:00 +11°C° 0 mm 6 mps 744 mmHg 66%
    14:00 +10°C° 0 mm 5 mps 744 mmHg 67%
    15:00 +10°C° 0 mm 5 mps 744 mmHg 69%
    16:00 +11°C° 0 mm 4 mps 744 mmHg 71%
    17:00 +10°C° 0 mm 4 mps 744 mmHg 75%
    18:00 +8°C° 0 mm 4 mps 744 mmHg 79%
    19:00 +8°C° 0 mm 3 mps 745 mmHg 82%
    20:00 +8°C° 0 mm 3 mps 745 mmHg 83%
    21:00 +8°C° 0 mm 3 mps 745 mmHg 84%
    22:00 +7°C° 0 mm 4 mps 745 mmHg 85%
    23:00 +6°C° 0 mm 4 mps 745 mmHg 86%

    24 October, Tuesday

    Time Temperature Precipitation Wind Pressure Humidity
    00:00 +6°C° 0 mm 4 mps 745 mmHg 87%
    01:00 +6°C° 0 mm 4 mps 745 mmHg 87%
    02:00 +6°C° 0 mm 4 mps 746 mmHg 87%
    03:00 +6°C° 0 mm 4 mps 746 mmHg 86%
    04:00 +6°C° 0 mm 4 mps 746 mmHg 86%
    05:00 +6°C° 0 mm 5 mps 747 mmHg 85%
    06:00 +6°C° 0 mm 5 mps 747 mmHg 84%
    07:00 +6°C° 0 mm 5 mps 748 mmHg 84%
    08:00 +8°C° 0 mm 5 mps 748 mmHg 80%
    09:00 +9°C° 0 mm 6 mps 749 mmHg 76%
    10:00 +10°C° 0 mm 6 mps 750 mmHg 72%
    11:00 +11°C° 0 mm 7 mps 750 mmHg 70%
    12:00 +11°C° 0 mm 7 mps 750 mmHg 68%
    13:00 +12°C° 0 mm 7 mps 750 mmHg 65%
    14:00 +11°C° 0 mm 6 mps 751 mmHg 68%
    15:00 +11°C° 0 mm 6 mps 751 mmHg 70%
    16:00 +10°C° 0 mm 5 mps 751 mmHg 72%
    17:00 +9°C° 0 mm 5 mps 752 mmHg 75%
    18:00 +10°C° 0 mm 4 mps 752 mmHg 79%
    19:00 +8°C° 0 mm 4 mps 753 mmHg 83%
    20:00 +7°C° 0 mm 4 mps 753 mmHg 85%
    21:00 +8°C° 0 mm 3 mps 753 mmHg 87%
    22:00 +8°C° 0 mm 3 mps 754 mmHg 89%
    23:00 +7°C° 0 mm 3 mps 754 mmHg 90%

    25 October, Wednesday

    Time Temperature Precipitation Wind Pressure Humidity
    00:00 +7°C° 0 mm 3 mps 754 mmHg 91%
    01:00 +5°C° 0 mm 3 mps 754 mmHg 92%
    02:00 +5°C° 0 mm 3 mps 754 mmHg 92%
    03:00 +6°C° 0 mm 2 mps 754 mmHg 93%
    04:00 +5°C° 0 mm 2 mps 754 mmHg 93%
    05:00 +5°C° 0 mm 2 mps 755 mmHg 93%
    06:00 +5°C° 0 mm 2 mps 755 mmHg 93%
    07:00 +5°C° 0 mm 2 mps 755 mmHg 93%
    08:00 +7°C° 0 mm 2 mps 755 mmHg 85%
    09:00 +8°C° 0 mm 3 mps 755 mmHg 77%
    10:00 +10°C° 0 mm 3 mps 755 mmHg 69%
    11:00 +11°C° 0 mm 3 mps 755 mmHg 66%
    12:00 +12°C° 0 mm 3 mps 755 mmHg 62%
    13:00 +13°C° 0 mm 3 mps 754 mmHg 58%
    14:00 +13°C° 0 mm 3 mps 754 mmHg 62%
    15:00 +13°C° 0 mm 2 mps 754 mmHg 66%
    16:00 +13°C° 0 mm 2 mps 754 mmHg 69%
    17:00 +10°C° 0 mm 2 mps 755 mmHg 74%
    18:00 +9°C° 0 mm 2 mps 755 mmHg 79%
    19:00 +8°C° 0 mm 2 mps 755 mmHg 84%
    20:00 +7°C° 0 mm 2 mps 756 mmHg 86%
    21:00 +7°C° 0 mm 2 mps 756 mmHg 87%
    22:00 +8°C° 0 mm 1 mps 756 mmHg 88%
    23:00 +7°C° 0 mm 1 mps 756 mmHg 89%
    Show more